When you browse on this site, cookies collect data to enhance your experience and personalize the content and advertising you see.
Visit our Privacy Policy to learn more. By continuing to use the site, you agree to this use of cookies and data.

Stündliche Wetter Loon op Zand

Heute, 22 September, Dienstag

Zeit Temperatur Niederschläge Wind Luftdruck Luftfeuchtigkeit
00:00 +14°C° 0 mm 1 m/S 759 mmHg 85%
01:00 +14°C° 0 mm 1 m/S 759 mmHg 85%
02:00 +13°C° 0 mm 1 m/S 759 mmHg 86%
03:00 +12°C° 0 mm 0 m/S 758 mmHg 86%
04:00 +12°C° 0 mm 0 m/S 758 mmHg 86%
05:00 +12°C° 0 mm 0 m/S 758 mmHg 86%
06:00 +12°C° 0 mm 0 m/S 758 mmHg 85%
07:00 +14°C° 0 mm 0 m/S 758 mmHg 78%
08:00 +18°C° 0 mm 1 m/S 758 mmHg 71%
09:00 +20°C° 0 mm 1 m/S 757 mmHg 64%
10:00 +22°C° 0 mm 1 m/S 757 mmHg 58%
11:00 +23°C° 0 mm 1 m/S 757 mmHg 52%
12:00 +24°C° 0 mm 2 m/S 757 mmHg 46%
13:00 +24°C° 0 mm 1 m/S 756 mmHg 44%
14:00 +25°C° 0 mm 1 m/S 755 mmHg 43%
15:00 +25°C° 0 mm 1 m/S 755 mmHg 42%
16:00 +23°C° 0 mm 1 m/S 755 mmHg 48%
17:00 +20°C° 0 mm 1 m/S 754 mmHg 55%
18:00 +18°C° 0 mm 1 m/S 754 mmHg 61%
19:00 +18°C° 0 mm 1 m/S 754 mmHg 62%
20:00 +16°C° 0 mm 1 m/S 754 mmHg 63%
21:00 +15°C° 0 mm 1 m/S 754 mmHg 65%
22:00 +15°C° 0 mm 1 m/S 754 mmHg 64%
23:00 +15°C° 0 mm 2 m/S 753 mmHg 63%

Morgen, 23 September, Mittwoch

Zeit Temperatur Niederschläge Wind Luftdruck Luftfeuchtigkeit
00:00 +15°C° 0 mm 2 m/S 753 mmHg 63%
01:00 +13°C° 0 mm 3 m/S 753 mmHg 66%
02:00 +13°C° 0 mm 3 m/S 753 mmHg 69%
03:00 +13°C° 0 mm 3 m/S 753 mmHg 73%
04:00 +13°C° 0 mm 3 m/S 753 mmHg 76%
05:00 +13°C° 0 mm 3 m/S 753 mmHg 79%
06:00 +13°C° 0 mm 3 m/S 753 mmHg 82%
07:00 +15°C° 0 mm 4 m/S 753 mmHg 78%
08:00 +18°C° 0 mm 4 m/S 752 mmHg 75%
09:00 +20°C° 0 mm 5 m/S 752 mmHg 71%
10:00 +20°C° 0.1 mm 6 m/S 752 mmHg 69%
11:00 +21°C° 0.1 mm 6 m/S 752 mmHg 67%
12:00 +21°C° 0.1 mm 7 m/S 752 mmHg 64%
13:00 +21°C° 0.1 mm 7 m/S 752 mmHg 65%
14:00 +21°C° 0.1 mm 6 m/S 751 mmHg 66%
15:00 +20°C° 0.1 mm 6 m/S 751 mmHg 66%
16:00 +19°C° 0 mm 5 m/S 751 mmHg 69%
17:00 +18°C° 0 mm 4 m/S 751 mmHg 72%
18:00 +17°C° 0 mm 3 m/S 750 mmHg 75%
19:00 +17°C° 0.3 mm 3 m/S 750 mmHg 79%
20:00 +17°C° 0.3 mm 4 m/S 750 mmHg 82%
21:00 +17°C° 0.3 mm 4 m/S 749 mmHg 85%
22:00 +16°C° 1.6 mm 5 m/S 749 mmHg 87%
23:00 +16°C° 1.6 mm 6 m/S 748 mmHg 89%

übermorgen, 24 September, Donnerstag

Zeit Temperatur Niederschläge Wind Luftdruck Luftfeuchtigkeit
00:00 +16°C° 1.6 mm 7 m/S 748 mmHg 91%
01:00 +15°C° 0.1 mm 7 m/S 748 mmHg 89%
02:00 +14°C° 0.1 mm 6 m/S 748 mmHg 88%
03:00 +14°C° 0.1 mm 6 m/S 748 mmHg 87%
04:00 +13°C° 0 mm 5 m/S 749 mmHg 87%
05:00 +12°C° 0 mm 5 m/S 749 mmHg 87%
06:00 +10°C° 0 mm 5 m/S 750 mmHg 88%
07:00 +12°C° 0 mm 5 m/S 750 mmHg 81%
08:00 +13°C° 0 mm 6 m/S 750 mmHg 74%
09:00 +14°C° 0 mm 6 m/S 751 mmHg 67%
10:00 +15°C° 0 mm 6 m/S 751 mmHg 62%
11:00 +16°C° 0 mm 7 m/S 750 mmHg 57%
12:00 +17°C° 0 mm 7 m/S 750 mmHg 52%
13:00 +17°C° 0 mm 7 m/S 750 mmHg 52%
14:00 +17°C° 0 mm 6 m/S 749 mmHg 52%
15:00 +17°C° 0 mm 6 m/S 749 mmHg 52%
16:00 +15°C° 0.5 mm 5 m/S 748 mmHg 64%
17:00 +14°C° 0.5 mm 4 m/S 748 mmHg 75%
18:00 +12°C° 0.5 mm 4 m/S 747 mmHg 86%
19:00 +11°C° 0.5 mm 4 m/S 747 mmHg 87%
20:00 +11°C° 0.5 mm 4 m/S 747 mmHg 88%
21:00 +11°C° 0.5 mm 4 m/S 747 mmHg 89%
22:00 +10°C° 0.1 mm 5 m/S 747 mmHg 88%
23:00 +10°C° 0.1 mm 5 m/S 746 mmHg 88%

25 September, Freitag

Zeit Temperatur Niederschläge Wind Luftdruck Luftfeuchtigkeit
00:00 +10°C° 0.1 mm 6 m/S 746 mmHg 88%
01:00 +9°C° 0 mm 6 m/S 746 mmHg 88%
02:00 +8°C° 0 mm 5 m/S 746 mmHg 89%
03:00 +7°C° 0 mm 5 m/S 746 mmHg 90%
04:00 +7°C° 0 mm 5 m/S 746 mmHg 90%
05:00 +6°C° 0 mm 4 m/S 746 mmHg 90%
06:00 +6°C° 0 mm 4 m/S 746 mmHg 90%
07:00 +7°C° 0.1 mm 4 m/S 746 mmHg 86%
08:00 +9°C° 0.1 mm 3 m/S 746 mmHg 82%
09:00 +10°C° 0.1 mm 3 m/S 746 mmHg 79%
10:00 +11°C° 0 mm 3 m/S 747 mmHg 74%
11:00 +12°C° 0 mm 3 m/S 747 mmHg 68%
12:00 +13°C° 0 mm 3 m/S 747 mmHg 63%
13:00 +13°C° 0.3 mm 4 m/S 747 mmHg 66%
14:00 +13°C° 0.3 mm 5 m/S 747 mmHg 70%
15:00 +13°C° 0.3 mm 6 m/S 748 mmHg 73%
16:00 +11°C° 0.5 mm 6 m/S 748 mmHg 76%
17:00 +10°C° 0.5 mm 5 m/S 749 mmHg 79%
18:00 +10°C° 0.5 mm 4 m/S 749 mmHg 82%
19:00 +10°C° 0.1 mm 4 m/S 750 mmHg 82%
20:00 +9°C° 0.1 mm 5 m/S 750 mmHg 82%
21:00 +9°C° 0.1 mm 5 m/S 751 mmHg 82%
22:00 +9°C° 0.1 mm 5 m/S 751 mmHg 80%
23:00 +9°C° 0.1 mm 6 m/S 752 mmHg 78%

26 September, Samstag

Zeit Temperatur Niederschläge Wind Luftdruck Luftfeuchtigkeit
00:00 +9°C° 0.1 mm 6 m/S 752 mmHg 76%
01:00 +9°C° 0 mm 6 m/S 752 mmHg 73%
02:00 +9°C° 0 mm 6 m/S 752 mmHg 71%
03:00 +9°C° 0 mm 6 m/S 753 mmHg 69%
04:00 +9°C° 0 mm 6 m/S 753 mmHg 70%
05:00 +9°C° 0 mm 6 m/S 753 mmHg 70%
06:00 +8°C° 0 mm 6 m/S 754 mmHg 71%
07:00 +10°C° 0.2 mm 6 m/S 754 mmHg 70%
08:00 +11°C° 0.2 mm 7 m/S 754 mmHg 68%
09:00 +12°C° 0.2 mm 8 m/S 755 mmHg 66%
10:00 +12°C° 0.2 mm 8 m/S 755 mmHg 63%
11:00 +13°C° 0.2 mm 9 m/S 755 mmHg 61%
12:00 +13°C° 0.2 mm 9 m/S 755 mmHg 58%
13:00 +13°C° 0 mm 9 m/S 756 mmHg 59%
14:00 +12°C° 0 mm 9 m/S 756 mmHg 59%
15:00 +12°C° 0 mm 9 m/S 756 mmHg 60%
16:00 +11°C° 0.1 mm 8 m/S 757 mmHg 63%
17:00 +10°C° 0.1 mm 6 m/S 757 mmHg 66%
18:00 +9°C° 0.1 mm 5 m/S 757 mmHg 70%
19:00 +9°C° 0 mm 5 m/S 758 mmHg 71%
20:00 +9°C° 0 mm 5 m/S 758 mmHg 73%
21:00 +8°C° 0 mm 5 m/S 758 mmHg 74%
22:00 +8°C° 0.1 mm 4 m/S 758 mmHg 75%
23:00 +8°C° 0.1 mm 4 m/S 758 mmHg 76%

27 September, Sonntag

Zeit Temperatur Niederschläge Wind Luftdruck Luftfeuchtigkeit
00:00 +10°C° 0.1 mm 4 m/S 759 mmHg 77%
01:00 +8°C° 0 mm 4 m/S 758 mmHg 78%
02:00 +8°C° 0 mm 4 m/S 758 mmHg 80%
03:00 +8°C° 0 mm 4 m/S 758 mmHg 82%
04:00 +8°C° 0 mm 4 m/S 759 mmHg 82%
05:00 +7°C° 0 mm 4 m/S 759 mmHg 81%
06:00 +7°C° 0 mm 4 m/S 759 mmHg 81%
07:00 +9°C° 0 mm 5 m/S 759 mmHg 76%
08:00 +10°C° 0 mm 6 m/S 759 mmHg 72%
09:00 +11°C° 0 mm 6 m/S 759 mmHg 67%
10:00 +12°C° 0.1 mm 7 m/S 759 mmHg 68%
11:00 +12°C° 0.1 mm 7 m/S 759 mmHg 69%
12:00 +12°C° 0.1 mm 7 m/S 759 mmHg 70%
13:00 +12°C° 0.1 mm 7 m/S 759 mmHg 71%
14:00 +12°C° 0.1 mm 7 m/S 759 mmHg 72%
15:00 +12°C° 0.1 mm 7 m/S 759 mmHg 73%
16:00 +11°C° 0 mm 6 m/S 760 mmHg 74%
17:00 +11°C° 0 mm 6 m/S 760 mmHg 75%
18:00 +10°C° 0 mm 5 m/S 761 mmHg 76%
19:00 +10°C° 0 mm 5 m/S 761 mmHg 75%
20:00 +10°C° 0 mm 5 m/S 761 mmHg 74%
21:00 +11°C° 0 mm 4 m/S 762 mmHg 73%
22:00 +10°C° 0 mm 5 m/S 762 mmHg 72%
23:00 +10°C° 0 mm 5 m/S 762 mmHg 72%
Mehr zeigen